Weather History for Long Beach, CA

Change the Weather History Date:

Thursday, September 19, 2013

  Actual Average Record
Temperature  
Mean Temperature 69 °F 72 °F  
Max Temperature 75 °F 82 °F 97 °F (1984)
Min Temperature 63 °F 63 °F 51 °F (1978)
Degree Days  
Heating Degree Days 0 0  
Month to date heating degree days 0 0  
Since 1 July heating degree days 0 0  
Cooling Degree Days 4 7  
Month to date cooling degree days 213 160  
Year to date cooling degree days 1023 928  
Growing Degree Days 19 (Base 50)    
Moisture  
Dew Point 59 °F    
Average Humidity 69    
Maximum Humidity 84    
Minimum Humidity 54    
Precipitation  
Precipitation 0.00 in 0.01 in 0.34 in (1989)
Month to date precipitation 0.00 0.07  
Year to date precipitation 2.94 8.57  
Since 1 July precipitation 0.07 0.13  
Sea Level Pressure  
Sea Level Pressure 29.80 in    
Wind  
Wind Speed 4 mph (South)    
Max Wind Speed 12 mph    
Max Gust Speed 16 mph    
Visibility 9 miles    
Events      
T = Trace of Precipitation, MM = Missing Value Source: NWS Daily Summary

Daily Weather History Graph

Daily Weather History Graph

Search for Another Location

Airport:

Trip Planner

Search our weather history database for the weather conditions in past years. The results will help you decide how hot, cold, wet, or windy it might be!

Date:

Astronomy

Sep. 19, 2013 Rise Set
Actual Time 6:38 AM PDT 6:53 PM PDT
Civil Twilight 6:13 AM PDT 7:17 PM PDT
Nautical Twilight 5:44 AM PDT 7:47 PM PDT
Astronomical Twilight 5:15 AM PDT 8:16 PM PDT
Moon 6:58 PM PDT (9/19) 6:50 AM PDT (9/19)
Length of Visible Light 13h 04m
Length of Day
12h 14m
Full, 100% of the Moon is Illuminated
Sep 19
Full
Sep 26
Last Quarter
Oct 4
New
Oct 11
First Quarter
Oct 18
Full

Hourly Weather History & Observations

Time (PDT) Temp. Dew Point Humidity Pressure Visibility Wind Dir Wind Speed Gust Speed Precip Events Conditions
12:53 AM 64.9 °F 57.9 °F 78% 29.78 in 10.0 mi Calm Calm - N/A   Clear
1:53 AM 64.0 °F 59.0 °F 84% 29.78 in 9.0 mi ESE 3.5 mph - N/A   Clear
2:53 AM 63.0 °F 57.9 °F 84% 29.77 in 8.0 mi Calm Calm - N/A   Clear
3:53 AM 64.0 °F 59.0 °F 84% 29.77 in 6.0 mi Calm Calm - N/A   Haze
4:53 AM 64.0 °F 59.0 °F 84% 29.77 in 7.0 mi South 3.5 mph - N/A   Clear
5:53 AM 64.0 °F 59.0 °F 84% 29.78 in 6.0 mi Calm Calm - N/A   Haze
6:16 AM 64.4 °F 59.0 °F 83% 29.79 in 6.0 mi Calm Calm - N/A   Haze
6:53 AM 64.9 °F 59.0 °F 81% 29.81 in 8.0 mi Calm Calm - N/A   Overcast
7:53 AM 66.0 °F 59.0 °F 78% 29.81 in 7.0 mi ENE 3.5 mph - N/A   Overcast
8:53 AM 68.0 °F 59.0 °F 73% 29.82 in 8.0 mi ENE 4.6 mph - N/A   Overcast
9:53 AM 68.0 °F 57.9 °F 70% 29.83 in 8.0 mi Variable 4.6 mph - N/A   Overcast
10:17 AM 69.8 °F 57.2 °F 64% 29.83 in 8.0 mi Calm Calm - N/A   Overcast
10:53 AM 72.0 °F 57.9 °F 61% 29.83 in 9.0 mi Calm Calm - N/A   Mostly Cloudy
11:24 AM 71.6 °F 57.2 °F 60% 29.82 in 10.0 mi South 5.8 mph - N/A   Partly Cloudy
11:53 AM 73.9 °F 57.9 °F 57% 29.82 in 10.0 mi Variable 3.5 mph - N/A   Clear
12:53 PM 73.9 °F 57.9 °F 57% 29.80 in 10.0 mi SW 5.8 mph - N/A   Clear
1:53 PM 75.0 °F 57.9 °F 55% 29.78 in 10.0 mi South 6.9 mph - N/A   Clear
2:53 PM 73.0 °F 59.0 °F 61% 29.78 in 10.0 mi South 8.1 mph - N/A   Clear
3:53 PM 73.0 °F 59.0 °F 61% 29.77 in 10.0 mi South 9.2 mph 16.1 mph N/A   Clear
4:53 PM 72.0 °F 59.0 °F 64% 29.76 in 10.0 mi SW 9.2 mph - N/A   Clear
5:53 PM 70.0 °F 59.0 °F 68% 29.77 in 10.0 mi SSW 8.1 mph - N/A   Clear
6:53 PM 66.9 °F 59.0 °F 76% 29.78 in 10.0 mi South 8.1 mph - N/A   Partly Cloudy
7:53 PM 66.9 °F 59.0 °F 76% 29.80 in 10.0 mi SSE 5.8 mph - N/A   Clear
8:53 PM 66.0 °F 59.0 °F 78% 29.82 in 10.0 mi SSW 4.6 mph - N/A   Mostly Cloudy
9:53 PM 66.0 °F 59.0 °F 78% 29.83 in 10.0 mi SE 3.5 mph - N/A   Mostly Cloudy
10:00 PM 66.2 °F 59.0 °F 78% 29.83 in 10.0 mi SSE 3.5 mph - N/A   Scattered Clouds
10:53 PM 66.0 °F 59.0 °F 78% 29.83 in 10.0 mi SE 5.8 mph - N/A   Mostly Cloudy
11:53 PM 66.0 °F 59.0 °F 78% 29.83 in 9.0 mi SSE 4.6 mph - N/A   Overcast